カタログに戻る

STARLINK-32108

運用中通信VLEO
NORAD 59682·PAYLOAD·🇺🇸 United States

打ち上げ May 8, 2024 から Cape Canaveral Space Force Station

Loading…

次のパス (今後24時間)

TLE

最新Source: CelesTrak SupGP

元期: Sep 14, 2026, 22:03 UTC

1 59682C 24086A   26257.91923611  .00036984  00000+0  13399-2 0  2577
2 59682  43.0032  74.8379 0001492 274.3911 322.5839 15.27552761    19

AllMySatでSTARLINK-32108をリアルタイム追跡

Download on the App Store